Temperature
1 1 2 3 3 4 5 6 7 8 9 10 10 10 11 12 12 13 13 13 14 14 14 15 15 15 15 15 15 15 16 16 16 16 16 16 16 16 16 16 16 16 16
-1 -0 0 1 1 1 2 4 4 5 7 8 9 10 10 11 11 12 13 13 13 13 14 14 15 15 15 15 15 15 15 15 16 16 16 16 16 16 16 16 16 16 16
-2 -2 -2 -1 -1 -1 0 1 2 3 4 6 7 9 9 10 11 11 12 12 13 13 13 14 14 14 15 15 15 15 15 15 15 16 16 16 16 16 16 16 16 16 16
-3 -3 -3 -3 -3 -2 -2 -1 0 1 3 4 5 7 8 9 10 10 11 12 12 12 13 13 13 14 14 15 15 15 15 15 15 15 16 16 16 16 16 16 16 16 16
-4 -4 -4 -4 -4 -3 -3 -3 -2 -1 0 2 3 5 6 8 9 10 10 11 12 12 12 12 13 13 13 14 15 15 15 15 15 15 15 15 16 16 16 16 15 15 16
-5 -5 -5 -5 -5 -5 -4 -4 -4 -3 -2 -1 1 2 5 6 8 9 10 10 11 12 12 12 12 12 13 13 14 15 15 15 15 15 15 15 15 16 16 16 15 15 15
-6 -6 -6 -6 -6 -6 -6 -5 -5 -4 -3 -2 -1 1 4 6 7 9 10 10 10 11 11 12 12 12 12 12 13 14 14 15 15 15 15 15 15 15 16 15 15 15 15
-7 -7 -7 -7 -7 -7 -6 -6 -5 -5 -4 -4 -3 -2 -0 3 6 8 9 10 10 10 11 11 11 12 12 12 12 13 14 14 15 15 14 15 15 15 15 16 15 15 15
-8 -8 -8 -8 -8 -7 -7 -7 -6 -5 -5 -4 -3 -3 -2 1 1 7 8 9 10 10 11 11 11 11 11 12 12 12 13 14 14 15 14 14 14 15 15 15 15 15 15
-9 -9 -8 -8 -8 -8 -8 -7 -6 -6 -5 -4 -4 -3 -3 -2 -1 1 6 8 8 9 10 11 11 11 11 11 12 12 12 13 14 14 14 14 14 14 14 15 15 15 15
-9 -9 -9 -9 -9 -9 -8 -8 -7 -6 -5 -5 -5 -4 -3 -2 -2 -2 0 6 7 8 9 10 10 11 11 11 11 12 12 12 13 13 14 14 14 14 14 14 14 15 15
-10 -10 -10 -10 -10 -9 -9 -8 -7 -6 -6 -5 -5 -4 -4 -3 -2 -2 -1 1 2 5 7 8 10 10 11 11 11 11 12 12 12 13 13 14 14 14 14 14 14 14 15
-11 -11 -11 -11 -10 -10 -9 -9 -8 -7 -6 -6 -5 -5 -4 -4 -3 -2 -1 -1 0 3 5 7 9 9 10 10 11 11 11 12 12 12 13 13 13 14 14 14 14 14 14
-12 -12 -12 -12 -11 -11 -10 -9 -8 -7 -7 -6 -6 -6 -5 -4 -3 -2 -1 -1 -0 1 3 6 8 9 9 10 10 10 11 11 12 12 12 12 13 13 13 13 14 14 14
-12 -12 -12 -12 -12 -11 -10 -9 -9 -8 -7 -7 -7 -6 -6 -5 -3 -2 -2 -1 -1 0 2 5 7 8 9 9 10 10 10 11 11 12 12 12 12 13 13 13 13 13 13
-12 -12 -12 -12 -12 -12 -11 -10 -9 -8 -8 -7 -7 -7 -6 -5 -4 -3 -2 -1 -0 -0 1 3 5 7 8 8 9 9 10 10 11 11 12 12 12 12 12 13 13 13 13
-13 -13 -13 -13 -13 -12 -11 -10 -9 -8 -8 -8 -8 -7 -7 -6 -5 -4 -2 -1 -0 0 1 2 4 6 7 7 8 8 9 10 10 11 11 12 12 12 12 12 12 13 13
-13 -13 -13 -13 -13 -12 -11 -11 -9 -9 -8 -8 -8 -7 -7 -6 -5 -4 -3 -2 -1 0 1 1 3 4 6 6 7 8 8 9 9 10 11 11 12 12 12 12 12 12 12
-13 -13 -14 -14 -13 -12 -11 -10 -10 -9 -8 -8 -8 -8 -7 -6 -5 -4 -3 -2 -1 -1 0 1 2 3 5 6 6 7 7 8 9 9 10 11 11 12 12 12 12 12 12
-14 -14 -14 -14 -13 -12 -11 -10 -9 -8 -8 -8 -8 -8 -7 -6 -6 -5 -4 -3 -2 -1 -0 0 2 3 4 5 6 6 7 7 8 8 9 9 10 11 11 12 12 12 11
-14 -14 -14 -13 -13 -12 -12 -10 -9 -8 -8 -8 -8 -8 -7 -7 -6 -5 -4 -4 -3 -2 -1 -0 1 2 3 4 5 6 6 7 7 8 8 8 9 9 10 10 10 10 10
-14 -14 -14 -13 -13 -12 -11 -10 -9 -8 -8 -8 -8 -8 -8 -7 -7 -6 -6 -5 -4 -3 -3 -1 -0 1 2 3 4 5 5 6 6 7 7 8 8 8 8 9 9 9 9
-14 -14 -14 -13 -13 -12 -11 -10 -9 -9 -9 -9 -9 -9 -9 -8 -8 -7 -7 -6 -5 -5 -4 -3 -2 -0 1 2 3 4 5 6 6 6 6 6 6 6 7 7 7 7 7
-14 -14 -13 -13 -13 -12 -11 -10 -9 -9 -9 -9 -9 -9 -9 -9 -8 -8 -8 -7 -6 -6 -6 -5 -3 -2 -1 0 2 3 4 5 6 5 6 5 5 5 5 5 5 5 5
-13 -13 -13 -13 -13 -12 -11 -10 -10 -9 -9 -10 -9 -9 -9 -9 -9 -9 -9 -8 -7 -6 -6 -5 -4 -3 -2 -0 2 3 4 4 4 4 4 4 4 4 4 4 4 4 3
-13 -13 -13 -13 -13 -12 -12 -10 -10 -10 -10 -10 -10 -10 -10 -10 -10 -10 -10 -10 -9 -8 -7 -5 -4 -3 -2 -1 1 2 3 3 4 3 3 3 3 3 3 2 2 2 2
Wind_Speed
17 19 19 20 20 19 18 16 15 15 14 16 16 14 10 10 12 14 12 15 20 19 18 17 18 19 19 19 21 22 22 21 19 17 16 15 14 14 13 12 13 14 14
21 19 17 18 18 20 20 18 16 12 10 11 14 14 13 12 11 12 13 14 20 21 19 19 19 20 20 20 21 22 23 24 22 20 19 17 16 15 15 14 14 14 14
23 21 16 14 17 21 21 18 15 12 11 13 14 16 14 12 11 11 12 11 15 21 21 20 20 21 21 21 21 22 24 25 24 23 21 20 18 17 16 15 15 15 15
26 23 17 15 21 21 17 10 11 12 12 12 13 13 14 14 15 12 10 10 10 13 19 21 21 21 22 22 22 21 23 26 26 25 23 22 21 19 18 17 16 15 15
26 24 19 18 22 18 13 13 12 12 13 13 13 13 12 13 14 15 12 10 9 9 11 19 23 22 22 23 23 22 22 25 27 27 25 24 23 22 20 19 18 17 16
26 24 19 20 21 14 12 13 14 13 12 13 15 14 13 14 13 14 14 11 8 9 10 10 14 18 22 22 23 23 23 24 26 27 27 26 25 24 23 22 20 19 17
25 23 19 18 17 13 15 16 15 15 12 12 12 14 12 13 15 13 12 11 9 7 9 10 10 12 14 22 23 23 24 24 26 28 29 28 28 27 26 24 23 21 19
25 22 19 15 15 12 14 15 15 12 12 11 11 11 7 7 5 10 10 12 11 8 9 8 10 10 11 13 18 23 22 25 27 28 29 30 29 28 27 26 25 23 22
24 23 21 18 16 12 12 14 15 14 13 12 9 7 6 5 12 10 11 8 8 9 9 8 10 10 12 11 14 22 25 24 27 28 29 30 31 30 28 27 27 25 24
23 23 22 21 16 13 13 14 14 14 13 11 10 8 9 9 7 8 11 11 12 8 9 10 10 9 11 10 12 17 24 26 27 28 29 31 32 31 30 29 28 27 25
21 22 23 21 17 13 12 14 15 14 12 11 10 10 10 10 10 8 12 15 11 9 8 7 8 9 9 11 10 13 20 24 27 27 28 29 32 32 31 30 30 29 27
13 19 23 21 19 15 13 14 15 16 13 12 10 10 10 9 8 9 10 15 15 13 12 9 6 7 7 7 11 14 16 19 22 25 26 27 30 31 31 31 31 30 29
12 11 20 18 17 17 18 16 15 15 14 13 11 10 10 11 11 12 12 13 15 14 10 10 7 5 5 5 7 12 13 16 18 19 22 24 26 29 31 32 32 32 31
11 16 20 20 20 21 20 16 14 15 13 13 12 11 11 11 11 12 12 11 13 13 10 9 8 6 5 4 8 12 10 15 16 16 17 20 23 26 28 30 31 32 32
16 20 20 18 19 20 18 15 13 15 15 12 10 11 11 11 11 12 12 12 12 12 11 9 6 5 4 4 9 9 8 14 16 17 17 17 20 23 26 28 29 32 32
18 17 15 16 16 17 16 15 15 16 16 13 9 11 13 11 12 11 10 11 12 13 12 7 6 6 5 3 8 9 10 13 17 19 19 18 19 21 24 26 28 31 32
16 14 15 15 17 17 16 16 16 18 17 13 11 12 14 14 12 11 10 9 10 10 13 11 9 8 7 5 3 4 6 6 9 17 19 19 19 20 22 25 27 30 31
15 16 16 16 18 18 17 17 18 19 17 12 11 12 14 12 14 12 10 10 8 8 9 10 8 7 6 4 3 4 4 5 5 12 17 18 19 20 21 23 26 28 30
12 14 14 16 18 18 18 17 17 18 15 10 10 12 13 14 13 12 12 10 7 7 6 7 8 6 5 4 3 3 4 3 4 7 11 14 16 18 20 21 23 27 30
13 12 12 15 17 18 18 17 18 16 11 9 9 10 12 13 13 13 10 9 8 6 6 6 7 6 5 5 4 4 3 3 4 4 6 8 11 14 18 21 23 25 27
16 12 13 15 16 16 15 19 17 12 9 8 9 11 13 16 18 15 12 11 10 7 5 4 5 5 5 4 5 4 5 5 4 4 7 7 8 9 11 20 25 30 32
13 13 14 15 16 17 26 29 20 10 9 9 10 12 14 15 19 22 23 22 20 14 9 6 4 4 4 4 4 5 6 7 5 4 8 8 8 10 8 12 26 33 35
12 13 14 14 14 18 29 29 24 13 10 10 11 11 13 17 18 15 18 22 21 25 22 12 8 7 5 4 4 6 9 10 6 8 10 9 7 10 8 18 30 33 35
10 10 12 14 14 19 29 29 25 14 10 11 11 11 13 15 18 18 16 15 16 17 20 14 13 12 12 9 5 4 5 7 7 6 8 9 7 8 9 13 26 30 32
9 9 10 13 14 17 28 29 22 10 10 11 13 14 14 14 25 26 18 16 16 16 20 24 24 23 26 26 16 1 6 12 12 5 4 6 7 7 8 8 17 28 29
10 11 11 11 13 13 25 29 23 9 10 10 10 13 21 22 26 26 16 15 16 15 16 18 20 23 21 23 26 13 3 8 11 6 3 5 7 6 6 6 9 15 22
Wind_Direction
348 343 338 335 332 337 339 332 326 327 326 323 321 319 311 303 283 263 259 221 199 198 208 217 223 226 226 224 218 209 201 196 195 194 191 186 179 173 172 172 173 174 175
344 340 334 332 331 337 334 327 325 325 323 324 323 322 315 304 294 283 263 230 211 203 207 218 224 227 227 226 223 215 206 199 195 193 191 188 183 178 176 176 176 175 174
342 339 332 329 331 334 330 327 324 327 327 328 324 321 317 311 298 284 273 250 221 215 211 215 221 225 227 227 225 220 211 202 196 192 191 189 185 183 181 180 180 179 177
343 340 333 329 333 334 331 329 332 334 329 325 321 315 310 305 302 291 279 266 238 217 215 216 217 222 226 227 226 223 215 205 198 192 191 190 187 185 185 184 183 182 180
343 340 331 332 334 333 332 333 333 329 327 324 318 309 305 302 298 295 280 265 254 234 208 211 215 218 222 225 226 224 218 208 202 195 192 191 189 187 188 187 185 184 183
341 337 332 335 334 331 332 330 327 328 325 322 318 313 305 294 286 282 278 265 247 240 229 212 207 219 222 223 226 225 220 213 206 199 194 193 191 191 190 189 188 186 186
339 335 336 335 333 330 328 326 327 325 325 324 324 322 303 279 265 262 260 257 246 233 228 221 208 203 214 222 223 225 223 216 209 204 197 195 194 192 191 191 190 189 189
337 336 336 335 331 327 325 326 326 322 322 330 326 322 315 303 320 280 256 243 238 230 227 222 216 211 204 205 218 220 223 220 213 208 203 198 197 196 193 192 192 192 192
335 334 334 335 330 326 323 325 322 323 321 319 313 309 314 321 330 307 307 274 240 221 219 221 218 216 216 202 202 215 217 220 218 212 206 202 199 198 196 194 194 194 194
332 333 335 334 329 326 323 323 325 318 314 315 313 295 284 292 296 310 312 321 322 284 231 216 216 214 216 213 203 201 211 215 218 216 210 204 202 201 199 197 196 195 194
331 334 335 333 328 325 323 322 320 315 311 308 309 303 292 278 264 273 290 301 310 308 297 245 212 209 210 210 207 202 205 212 216 216 213 206 204 203 203 199 198 196 193
330 333 334 331 326 325 324 321 318 314 310 305 304 302 296 282 269 261 271 288 298 303 309 296 253 210 200 198 206 206 203 209 215 216 213 208 206 205 204 201 198 196 194
331 329 332 328 326 326 325 324 320 315 309 306 306 304 301 289 277 268 265 274 285 292 296 298 276 230 204 192 202 208 207 208 214 217 212 208 206 206 205 202 198 197 196
324 326 330 328 327 327 327 325 323 320 314 311 312 312 305 297 281 270 260 260 271 282 283 277 290 256 212 189 201 202 203 207 213 218 215 211 207 205 205 203 199 196 195
326 329 329 330 329 328 327 327 322 322 318 313 314 315 311 304 292 274 264 253 251 264 274 279 284 276 236 194 195 194 198 205 210 218 220 216 211 207 205 202 199 195 193
326 327 330 331 330 328 327 326 323 323 320 316 319 321 317 309 304 292 273 260 246 247 259 273 278 306 319 263 200 190 202 207 210 215 220 219 215 212 207 203 199 195 191
326 329 331 332 331 328 327 325 323 324 319 316 323 323 319 315 312 305 292 274 257 244 250 262 271 282 298 298 253 206 203 202 207 213 218 220 217 214 210 204 198 194 190
327 330 332 332 330 328 324 322 322 322 316 313 319 321 321 320 316 309 301 288 275 260 253 258 263 267 268 271 261 230 212 198 193 205 210 215 215 213 209 204 199 192 184
326 330 333 331 328 324 321 318 318 315 310 307 312 320 322 321 320 316 310 303 292 278 266 262 263 261 259 252 249 237 205 181 172 182 194 203 206 204 201 195 190 182 174
326 328 330 327 323 320 316 315 317 314 309 306 315 326 328 327 329 329 326 326 317 300 284 266 257 253 249 243 217 205 185 167 152 138 131 139 153 162 169 167 163 158 152
328 325 325 321 319 321 320 323 327 330 321 326 337 344 343 349 357 358 1 2 359 351 334 301 271 253 239 222 212 185 178 150 129 132 122 115 115 117 127 130 129 129 127
326 326 323 320 321 328 328 337 350 348 348 359 5 3 357 3 14 10 15 18 19 20 10 355 317 278 260 240 220 193 171 159 155 151 126 109 105 108 108 115 123 121 119
327 326 322 322 323 325 338 348 2 11 12 17 18 17 16 12 25 15 14 18 18 23 27 23 12 3 349 323 277 211 189 169 147 149 132 113 99 101 100 117 119 118 119
324 320 322 326 329 336 346 355 9 12 17 19 24 27 24 16 27 25 16 19 19 19 20 24 23 15 9 356 312 253 189 140 114 120 129 117 102 92 90 108 118 119 120
324 322 326 330 335 340 349 359 13 9 19 24 25 25 28 24 28 29 21 19 21 16 15 21 25 25 22 20 18 24 168 156 144 112 66 107 113 92 68 64 102 114 117
332 333 333 335 341 345 355 5 21 21 26 30 26 17 25 30 29 32 26 21 25 17 13 14 19 20 21 22 25 23 8 155 143 120 52 111 124 111 85 44 55 90 106
Height
1518 1513 1510 1506 1503 1500 1496 1493 1491 1488 1487 1486 1486 1486 1486 1486 1488 1490 1491 1493 1494 1496 1499 1501 1503 1506 1509 1512 1516 1519 1522 1526 1529 1532 1535 1538 1541 1545 1548 1552 1555 1558 1561
1516 1512 1507 1504 1500 1497 1493 1490 1487 1484 1481 1480 1479 1479 1479 1480 1480 1482 1484 1486 1488 1490 1492 1494 1496 1500 1503 1506 1510 1514 1517 1521 1524 1527 1531 1535 1538 1541 1545 1548 1552 1555 1558
1515 1510 1506 1502 1498 1494 1490 1486 1483 1480 1477 1475 1473 1472 1472 1473 1474 1475 1477 1479 1481 1483 1485 1487 1490 1492 1496 1500 1504 1508 1512 1516 1519 1523 1527 1531 1534 1538 1541 1545 1549 1552 1555
1513 1508 1503 1500 1496 1491 1487 1483 1479 1475 1472 1469 1467 1466 1466 1466 1466 1468 1469 1472 1474 1476 1478 1481 1483 1486 1489 1493 1497 1502 1506 1510 1514 1518 1522 1526 1530 1534 1537 1541 1545 1549 1552
1510 1506 1501 1498 1493 1489 1485 1481 1476 1472 1468 1464 1461 1459 1459 1458 1459 1460 1462 1465 1468 1470 1473 1475 1477 1480 1483 1486 1490 1495 1499 1504 1508 1513 1517 1521 1525 1529 1533 1537 1541 1545 1549
1508 1504 1500 1496 1491 1487 1482 1478 1474 1469 1466 1461 1457 1454 1451 1451 1451 1453 1455 1458 1461 1463 1467 1469 1472 1474 1477 1480 1483 1488 1493 1497 1502 1507 1511 1516 1520 1524 1529 1533 1537 1541 1545
1507 1502 1498 1493 1489 1485 1481 1477 1472 1467 1463 1459 1454 1448 1444 1444 1444 1445 1448 1451 1454 1457 1460 1463 1466 1468 1471 1474 1477 1481 1485 1490 1495 1500 1505 1510 1515 1519 1524 1529 1532 1536 1541
1505 1501 1496 1492 1487 1483 1478 1474 1470 1466 1462 1460 1456 1450 1443 1440 1439 1439 1441 1443 1447 1450 1453 1456 1460 1462 1465 1468 1471 1474 1478 1483 1488 1493 1499 1504 1509 1514 1519 1523 1528 1532 1536
1503 1499 1494 1490 1485 1480 1476 1472 1468 1465 1460 1458 1457 1455 1451 1444 1437 1433 1434 1437 1440 1443 1447 1450 1453 1456 1459 1462 1465 1468 1472 1476 1481 1486 1491 1497 1502 1508 1512 1517 1522 1527 1531
1500 1496 1491 1486 1482 1477 1473 1469 1465 1462 1458 1455 1453 1452 1451 1448 1445 1436 1428 1428 1431 1436 1440 1443 1446 1449 1453 1456 1459 1462 1466 1470 1474 1479 1485 1490 1496 1501 1506 1511 1517 1521 1526
1497 1493 1488 1483 1478 1474 1469 1465 1461 1458 1455 1452 1450 1447 1446 1445 1443 1440 1432 1423 1424 1427 1431 1436 1439 1442 1446 1449 1452 1455 1459 1463 1468 1473 1478 1484 1489 1495 1500 1505 1511 1516 1521
1494 1489 1484 1479 1474 1470 1465 1461 1457 1454 1451 1448 1446 1443 1441 1440 1438 1437 1433 1426 1421 1420 1423 1426 1431 1435 1439 1442 1445 1449 1453 1457 1461 1466 1471 1477 1482 1488 1494 1499 1505 1510 1515
1491 1486 1481 1476 1471 1466 1462 1457 1453 1449 1447 1444 1441 1438 1435 1433 1432 1432 1430 1426 1421 1416 1418 1419 1423 1428 1431 1434 1438 1442 1446 1450 1455 1460 1464 1470 1475 1481 1488 1493 1499 1504 1509
1490 1484 1479 1473 1468 1463 1458 1453 1449 1445 1442 1439 1436 1433 1429 1427 1426 1425 1424 1423 1420 1415 1412 1414 1417 1421 1425 1428 1431 1435 1439 1443 1448 1453 1458 1463 1469 1475 1481 1487 1492 1498 1503
1489 1482 1477 1471 1465 1459 1455 1450 1445 1441 1438 1435 1431 1427 1424 1421 1418 1417 1417 1417 1418 1415 1410 1409 1413 1416 1419 1422 1426 1429 1433 1437 1441 1446 1451 1456 1462 1468 1474 1480 1486 1492 1497
1486 1480 1474 1468 1462 1456 1452 1447 1442 1437 1434 1431 1427 1423 1419 1415 1412 1410 1409 1409 1409 1410 1408 1405 1408 1411 1414 1417 1420 1423 1427 1431 1434 1439 1444 1449 1454 1460 1467 1473 1479 1485 1491
1484 1478 1471 1465 1459 1453 1448 1443 1439 1434 1431 1428 1424 1419 1415 1411 1407 1404 1401 1401 1401 1402 1402 1401 1403 1405 1408 1411 1414 1418 1421 1425 1428 1432 1437 1442 1447 1453 1459 1466 1472 1478 1484
1481 1476 1469 1463 1456 1451 1446 1441 1436 1431 1428 1425 1421 1416 1411 1407 1403 1399 1396 1394 1393 1394 1395 1396 1397 1399 1402 1406 1409 1413 1416 1419 1422 1426 1430 1435 1440 1446 1452 1458 1465 1471 1478
1479 1473 1467 1460 1454 1448 1443 1438 1433 1428 1425 1422 1418 1413 1408 1404 1399 1395 1391 1388 1387 1387 1388 1389 1391 1393 1397 1401 1405 1408 1411 1414 1417 1420 1424 1428 1433 1439 1445 1451 1457 1464 1471
1477 1471 1465 1459 1452 1446 1441 1435 1430 1426 1423 1420 1416 1411 1406 1402 1397 1392 1388 1385 1382 1381 1381 1383 1385 1388 1391 1395 1399 1403 1406 1410 1413 1416 1419 1422 1427 1432 1438 1444 1450 1457 1463
1475 1470 1463 1457 1451 1445 1439 1434 1428 1424 1422 1418 1414 1410 1405 1401 1396 1391 1387 1383 1379 1377 1376 1377 1379 1382 1385 1389 1393 1397 1402 1406 1410 1412 1415 1419 1423 1427 1432 1439 1445 1451 1458
1473 1468 1462 1456 1450 1444 1438 1432 1426 1423 1421 1418 1414 1410 1405 1400 1395 1389 1386 1382 1379 1376 1373 1373 1374 1377 1380 1384 1388 1392 1397 1401 1405 1409 1411 1416 1421 1426 1431 1436 1442 1448 1454
1472 1467 1461 1456 1450 1444 1438 1431 1426 1423 1421 1418 1415 1411 1407 1402 1396 1391 1386 1382 1378 1375 1373 1372 1371 1373 1375 1378 1382 1387 1391 1395 1400 1405 1409 1414 1419 1424 1430 1436 1441 1446 1452
1472 1467 1461 1456 1451 1445 1439 1432 1427 1424 1422 1419 1417 1414 1410 1405 1400 1394 1388 1383 1379 1375 1373 1371 1370 1370 1371 1372 1376 1381 1386 1390 1395 1401 1405 1411 1418 1424 1431 1438 1443 1448 1453
1472 1467 1463 1457 1452 1447 1441 1435 1429 1426 1424 1422 1419 1417 1413 1409 1404 1398 1392 1387 1382 1379 1376 1373 1371 1368 1367 1368 1371 1377 1381 1384 1388 1394 1400 1406 1415 1422 1430 1437 1444 1450 1456
1474 1469 1464 1459 1455 1450 1444 1438 1432 1429 1427 1425 1422 1420 1417 1413 1408 1403 1397 1392 1387 1383 1379 1375 1372 1369 1367 1367 1369 1372 1375 1379 1382 1389 1396 1403 1411 1419 1429 1437 1444 1451 1458